Terug naar catalogus

THORAD DELTA 1 DEB

ActiefUNKNOWN
NORAD 8405·DEBRIS·🇺🇸 United States

Gelanceerd Nov 15, 1974 vanaf Vandenberg Space Force Base

Loading…

Volgende Passages (komende 24 uur)

TLE

VersSource: Space-Track

Epoch: Sep 14, 2026, 14:26 UTC

1 08405U 74089CH  26257.60143460  .00000639  00000-0  10941-1 0  9995
2 08405 102.7193 144.3407 0703092  31.5566 332.5689 11.30717961140964

Volg THORAD DELTA 1 DEB in realtime met AllMySat

Download on the App Store